Regional Weather Roundup
Issued by NWS

Home | Current Version | Previous Version | Text Only | Print | Product List | Glossary On
Versions: 1 2 3 4 5 6 7 8 9 10 11 12 13 14 15 16 17 18 19 20 21 22 23 24 25 26 27 28 29 30 31 32 33 34 35 36 37 38 39 40 41 42 43 44 45 46 47 48 49 50
608
ASUS45 KPSR 012010
RWRAZ

ARIZONA HOURLY REGIONAL WEATHER ROUNDUP
NATIONAL WEATHER SERVICE PHOENIX AZ
100 PM MST WED MAR 01 2017

NOTE: FAIR INDICATES FEW OR NO CLOUDS BELOW 12,000 FEET WITH NO
SIGNIFICANT WEATHER AND/OR OBSTRUCTIONS TO VISIBILITY.

AZZ001>003-036-012100-
NORTHWEST ARIZONA

CITY           SKY/WX    TMP DP  RH WIND       PRES   REMARKS
BULLHEAD CITY  SUNNY     63  21  20 N22G28    30.34F
KINGMAN        SUNNY     54  11  18 N10       30.35F
$$

AZZ004>008-015-016-018-012100-
NORTH CENTRAL ARIZONA

CITY           SKY/WX    TMP DP  RH WIND       PRES   REMARKS
GRAND CANYON   SUNNY     37  17  44 NE9       30.37F WCI  30
WILLIAMS       SUNNY     37  16  41 NW3       30.34F
PRESCOTT       SUNNY     49  20  31 VRB5      30.32F
FLAGSTAFF      SUNNY     33  13  43 E12       30.34F WCI  24
PAYSON         SUNNY     48  21  34 NE8       30.33F
PAGE           SUNNY     46   7  20 VRB5      30.39F
$$

AZZ009>014-017-012100-
NORTHEAST ARIZONA

CITY           SKY/WX    TMP DP  RH WIND       PRES   REMARKS
WINSLOW        SUNNY     44  20  38 N9        30.39F
SAINT JOHNS    SUNNY     43  19  38 NE6       30.33F
WINDOW ROCK    SUNNY     35  12  38 VRB5      30.35F WCI  31
SHOW LOW       SUNNY     37  21  52 NE10      30.35F WCI  30
$$

AZZ023-012100-
GREATER PHOENIX AREA

CITY           SKY/WX    TMP DP  RH WIND       PRES   REMARKS
PHOENIX        MOSUNNY   65  34  31 VRB5      30.24F
BUCKEYE        SUNNY     64  36  34 SW5       30.26F
GLENDALE       SUNNY     64  34  32 CALM      30.27F
DEER VALLEY    SUNNY     65  32  29 N5        30.25F
SCOTTSDALE     SUNNY     64  29  26 SE6       30.26F
MESA-FALCON    SUNNY    N/A N/A N/A N12G17    30.22F
CHANDLER       SUNNY     66  28  24 NE8       30.25F
$$

AZZ027-028-012100-
SOUTHWEST MARICOPA COUNTY AND PINAL COUNTY

CITY           SKY/WX    TMP DP  RH WIND       PRES   REMARKS
CASA GRANDE    NOT AVBL
GILA BEND      SUNNY     66  38  35 N7G20     30.24F
$$

AZZ503-504-507>509-012100-
SOUTHEAST ARIZONA

CITY           SKY/WX    TMP DP  RH WIND       PRES   REMARKS
TUCSON         SUNNY     65  35  33 N6        30.22F
DAVIS-MONTHAN  SUNNY     64  35  34 VRB6      30.21F
RYAN FIELD     SUNNY     64  34  32 NW5       30.23F
NOGALES        SUNNY     65  28  24 W6        30.19F
SIERRA VISTA   SUNNY     60  29  31 VRB3      30.25F
DOUGLAS        SUNNY     61  29  29 W6        30.22F
SAFFORD        SUNNY     59  24  26 VRB3      30.24F
$$

AZZ020-021-025-026-031-012100-
SOUTHWEST ARIZONA

CITY           SKY/WX    TMP DP  RH WIND       PRES   REMARKS
YUMA           SUNNY     69  34  27 N13       30.26F
$$

CAZ031-033-041-043-047-048-061-012100-
SOUTHERN CALIFORNIA

CITY           SKY/WX    TMP DP  RH WIND       PRES   REMARKS
DOWNTOWN L.A.  SUNNY     73  30  20 CALM      30.25F
L.A. AIRPORT   SUNNY     70  32  24 SE6       30.26F
SAN DIEGO      SUNNY     67  43  41 NW10      30.24F
BURBANK        SUNNY     67  20  16 W5        30.26F
ONTARIO        SUNNY     69  25  19 E18G30    30.25F
RIVERSIDE      SUNNY     69  28  21 N9        30.26F
PALM SPRINGS   SUNNY     70  36  28 VRB5      30.32F
EL CENTRO NAS  SUNNY     70  32  24 N13       30.31F
IMPERIAL       SUNNY     70  39  32 N12G17    30.28F
BLYTHE         SUNNY     65  31  28 N9        30.31F
NEEDLES        SUNNY     66  23  19 NE17G25   30.33F
$$

NVZ020-UTZ003-012100-
SOUTHERN NEVADA-UTAH

CITY           SKY/WX    TMP DP  RH WIND       PRES   REMARKS
LAS VEGAS      SUNNY     58  12  16 N6        30.39F
SALT LAKE CITY PTSUNNY   40  18  41 VRB5      30.45F
$$

NMZ009-TXZ055-012100-
NEW MEXICO-WEST TEXAS

CITY           SKY/WX    TMP DP  RH WIND       PRES   REMARKS
ALBUQUERQUE    SUNNY     45  -1  14 NW9G22    30.30F
EL PASO        MOSUNNY   60  17  18 VRB5      30.27F
$$


........................KEY........................
SKY/WX - SKY CONDITION/WEATHER
TMP    - TEMPERATURE IN FAHRENHEIT
DP     - DEW POINT IN FAHRENHEIT
RH     - RELATIVE HUMIDITY IN PERCENT
WIND   - DIRECTION AND SPEED IN MILES PER HOUR (MPH)
VRB    - VARIABLE WIND DIRECTION
PRES   - MEAN SEA LEVEL PRESSURE IN INCHES OF MERCURY
         F - FALLING PRESSURE   R - RISING PRESSURE
         S - STEADY PRESSURE
VSB    - VISIBILITY IN MILES
HX     - HEAT INDEX IN FAHRENHEIT
WCI    - WIND CHILL INDEX IN FAHRENHEIT
TC     - TEMPERATURE IN CELSIUS WHICH IS ALSO KNOWN AS
         TEMPERATURE IN CENTIGRADE
AFB    - AIR FORCE BASE
         LUKE AFB IS LUKE AIR FORCE BASE
         DAVIS-MONTHAN IS DAVIS-MONTHAN AIR FORCE BASE
NAS    - NAVAL AIR STATION
         EL CENTRO NAS IS EL CENTRO NAVAL AIR STATION
N/A    - NOT AVAILABLE





USA.gov is the U.S. government's official web portal to all federal, state and local government web resources and services.